Home > Weather > Dortmund > Past weeks

Flag for Germany Past Weather in Dortmund, North Rhine-Westphalia, Germany — Yesterday and Last 2 Weeks

Now
77 °F

Scattered clouds.


Feels Like: 79 °F
Forecast: 60 / 74 °F
Wind: 9 mph from West

Location: Dortmund / Wickede

Current Time: Jul 25, 2016 at 2:00:28 PM

Latest Report: Jul 25, 2016 at 12:50 PM


Visibility: N/A

Pressure: 30.09 "Hg

Humidity: 51%

Dew Point: 57 °F

Location of DortmundLocation

Past Weather in Dortmund — Graph

°F

Dortmund Temperature Yesterday

Maximum temperature yesterday: 82 °F (at 4:20 PM)
Minimum temperature yesterday: 59 °F (at 5:20 AM)
Average temperature yesterday: 73 °F

High & Low Weather Summary for the Past Weeks

 TemperatureHumidityPressure
High91 °F (Jul 20, 3:20 PM)88% (Jul 13, 5:20 AM)30.30 "Hg (Jul 13, 5:20 AM)
Low48 °F (Jul 14, 5:20 AM)20% (Jul 20, 5:20 PM)29.77 "Hg (Jul 10, 7:20 PM)
Average70 °F59%30.05 "Hg
* Reported Jul 10 12:20 PM — Jul 25 12:20 PM, Dortmund, Weather by CustomWeather, © 2016

Note: Actual official high and low records may vary slightly from our data, if they occured in-between our weather recording intervals... More about our weather records

Advertising

Dortmund Weather History for the Previous 24 Hours

Scroll right to see more
 ConditionsComfort  
Time TempWeatherWind HumidityBarometerVisibility
12:20 PM
Mon, Jul 25
77 °FPassing clouds.9 mph51%30.09 "HgN/A
12:03 PM75 °FMild.8 mph54%30.09 "HgN/A
11:50 AM75 °FPassing clouds.8 mph54%30.09 "HgN/A
11:20 AM73 °FPassing clouds.8 mph57%30.09 "HgN/A
10:50 AM73 °FPassing clouds.10 mph57%30.09 "HgN/A
10:20 AM72 °FPassing clouds.8 mph61%30.09 "HgN/A
9:50 AM72 °FSunny.7 mph61%30.09 "Hg10 mi
9:20 AM70 °FSunny.8 mph64%30.09 "Hg10 mi
8:50 AM70 °FPassing clouds.7 mph69%30.09 "HgN/A
8:20 AM68 °FPassing clouds.7 mph73%30.09 "Hg4 mi
7:50 AM68 °FClear.6 mph78%30.09 "Hg4 mi
7:20 AM68 °FFog.6 mph78%30.09 "Hg3 mi
6:50 AM68 °FPartly sunny.5 mph78%30.09 "Hg4 mi
6:20 AM66 °FPassing clouds.7 mph83%30.07 "Hg4 mi
5:50 AM66 °FClear.6 mph78%30.07 "Hg10 mi
5:20 AM66 °FClear.7 mph78%30.07 "Hg10 mi
9:50 PM
Sun, Jul 24
70 °FSunny.3 mph64%30.07 "Hg10 mi
9:20 PM72 °FSunny.6 mph65%30.07 "Hg10 mi
8:50 PM73 °FSunny.6 mph57%30.07 "Hg10 mi
8:20 PM75 °FSunny.7 mph54%30.07 "Hg10 mi
7:50 PM77 °FPassing clouds.8 mph51%30.07 "HgN/A
7:20 PM77 °FSunny.9 mph51%30.07 "Hg10 mi
6:50 PM79 °FPassing clouds.5 mph37%30.07 "HgN/A
6:20 PM81 °FPassing clouds.6 mph32%30.07 "HgN/A
5:50 PM79 °FPassing clouds.6 mph34%30.07 "HgN/A
5:20 PM81 °FSunny.3 mph30%30.07 "Hg10 mi
4:50 PM81 °FSunny.5 mph30%30.09 "Hg10 mi
4:20 PM82 °FSunny.5 mph28%30.09 "Hg10 mi
3:50 PM81 °FPassing clouds.7 mph32%30.09 "HgN/A
3:20 PM81 °FPassing clouds.7 mph32%30.09 "HgN/A
2:50 PM79 °FPassing clouds.9 mph34%30.09 "HgN/A
2:20 PM79 °FSunny.3 mph34%30.09 "Hg10 mi
Weather by CustomWeather, © 2016

See weather overviewHow to use our weather pages